(311585) = 2004 VK48 = 2006 HN71

Discovered at Kitt Peak on 2006-04-25 by Spacewatch.

Orbit

Orbit type: Main Belt

Note: WebGL enabled browser required.

epoch2023-02-25.0
epoch JD2460000.5
perihelion date2022-06-30.57635
perihelion JD2459761.07635
argument of perihelion (°)346.25681
ascending node (°)101.45587
inclination (°)6.07784
eccentricity0.1308298
perihelion distance (AU)1.9965427
Tisserand w.r.t. Jupiter3.6
ΔV w.r.t. Earth (km/sec)9.0
semimajor axis (AU)2.2970674
mean anomaly (°)67.78136
mean daily motion (°/day)0.28310220
aphelion distance (AU)2.598
period (years)3.48
P-vector [x]0.03860200
P-vector [y]0.92651334
P-vector [z]0.37427652
Q-vector [x]-0.99385192
Q-vector [y]-0.00329828
Q-vector [z]0.11066836
absolute magnitude17.43
phase slope0.15
uncertainty0
referenceMPO 745323
observations used315
oppositions14
arc length (days)9211
first opposition used1998
last opposition used2023
residual rms (arc-secs)0.71
perturbers coarse indicatorM-v
perturbers precise indicator003Ek
first observation date used1998-01-26.0
last observation date used2023-04-16.0
computer nameMPCLINUX
JD of orbit computation2456937.447004
perihelion JD uncertainty (days)6.3271E-05
argument of perihelion uncertainty (°)4.5384E-05
ascending node uncertainty (°)4.2078E-05
inclination uncertainty (°)4.2142E-06
eccentricity uncertainty 4.7716E-08
perihelion distance uncertainty (AU)1.1422E-07
Minimum Orbit Intersection Distances (in AU)
for orbit epoch: 2460000.5, reference: E2023-H35
Mercury1.68968
Venus1.27751
Earth1.01266
Mars0.39745
Jupiter2.57952
Saturn7.06474
Uranus16.1796
Neptune27.617

Observations

328 total observations over interval: 1998 01 26.09204 – 2023 04 16.288845
These data are available for download (format description).

Date (UT) J2000 RA J2000 Dec Magn Location Ref
1998 01 26.09204 03 18 43.17 +15 08 20.6 20.9 V 691 – Steward Observatory, Kitt Peak-Spacewatch MPS 171663
1998 01 26.11450 03 18 44.38 +15 08 32.1 20.7 V 691 – Steward Observatory, Kitt Peak-Spacewatch MPS 171663
1998 01 26.13663 03 18 45.53 +15 08 41.6 20.9 V 691 – Steward Observatory, Kitt Peak-Spacewatch MPS 171663
2002 03 11.31290 10 39 38.64 +18 42 35.4 20.2   644 – Palomar Mountain/NEAT MPS 171663
2002 03 11.32326 10 39 38.03 +18 42 38.7 20.3   644 – Palomar Mountain/NEAT MPS 171663
2002 03 11.33368 10 39 37.43 +18 42 41.8 20.7   644 – Palomar Mountain/NEAT MPS 171663
2004 11 04.30981 04 23 27.75 +13 10 38.7 19.7 V 691 – Steward Observatory, Kitt Peak-Spacewatch MPS 119389
2004 11 04.34042 04 23 26.34 +13 10 37.0 19.7 V 691 – Steward Observatory, Kitt Peak-Spacewatch MPS 119389
2004 11 04.37413 04 23 24.79 +13 10 34.8 19.9 V 691 – Steward Observatory, Kitt Peak-Spacewatch MPS 119389
2004 11 10.31914 04 18 35.39 +13 05 26.4 19.6 V 691 – Steward Observatory, Kitt Peak-Spacewatch MPS 119389
2004 11 10.34663 04 18 33.84 +13 05 25.1 19.6 V 691 – Steward Observatory, Kitt Peak-Spacewatch MPS 119389
2004 11 10.37321 04 18 32.33 +13 05 23.9 19.5 V 691 – Steward Observatory, Kitt Peak-Spacewatch MPS 119389
2006 04 25.31272 15 27 39.82 -10 16 11.1   691 – Steward Observatory, Kitt Peak-Spacewatch MPS 170924
2006 04 25.33013 15 27 38.83 -10 16 07.9   691 – Steward Observatory, Kitt Peak-Spacewatch MPS 170924
2006 04 25.34754 15 27 37.87 -10 16 04.3   691 – Steward Observatory, Kitt Peak-Spacewatch MPS 170924
2006 04 29.29690 15 23 55.29 -10 03 18.3 21.0 V 691 – Steward Observatory, Kitt Peak-Spacewatch MPS 170924
2006 04 29.31428 15 23 54.25 -10 03 15.3 20.8 V 691 – Steward Observatory, Kitt Peak-Spacewatch MPS 170924
2006 04 29.33168 15 23 53.20 -10 03 11.9 20.6 V 691 – Steward Observatory, Kitt Peak-Spacewatch MPS 170924
2006 05 03.31545 15 19 56.70 -09 50 50.5 20.8 V 691 – Steward Observatory, Kitt Peak-Spacewatch MPS 170924
2006 05 03.33294 15 19 55.64 -09 50 47.1 20.5 V 691 – Steward Observatory, Kitt Peak-Spacewatch MPS 170924
2006 05 03.35036 15 19 54.54 -09 50 44.1 20.8 V 691 – Steward Observatory, Kitt Peak-Spacewatch MPS 170925
2008 12 05.50829 11 04 43.94 +10 03 07.4 21.6 V 691 – Steward Observatory, Kitt Peak-Spacewatch MPS 267561
2008 12 05.52092 11 04 44.89 +10 03 04.5 21.3 V 691 – Steward Observatory, Kitt Peak-Spacewatch MPS 267561
2008 12 05.53353 11 04 45.85 +10 03 01.2 21.4 V 691 – Steward Observatory, Kitt Peak-Spacewatch MPS 267561
2009 03 02.34316 11 19 35.61 +14 59 22.4 20.3 V G96 – Mt. Lemmon Survey MPS 278674
2009 03 02.34914 11 19 35.25 +14 59 25.1 20.2 V G96 – Mt. Lemmon Survey MPS 278674
2009 03 02.35529 11 19 34.86 +14 59 28.0 20.2 V G96 – Mt. Lemmon Survey MPS 278674
2009 03 02.36141 11 19 34.50 +14 59 30.9 19.6 V G96 – Mt. Lemmon Survey MPS 278674
2011 11 23.32052 04 47 04.76 +15 31 51.2 20.0   704 – Lincoln Laboratory ETS, New Mexico MPS 405950
2011 11 23.33328 04 47 04.09 +15 31 51.7 19.8   704 – Lincoln Laboratory ETS, New Mexico MPS 405950
2011 11 23.34611 04 47 03.09 +15 31 52.9 19.7   704 – Lincoln Laboratory ETS, New Mexico MPS 405950
2011 11 23.35699 04 47 02.48 +15 31 53.7 19.0 R H15 – ISON-NM Observatory, Mayhill MPS 401099
2011 11 23.35885 04 47 02.30 +15 31 53.7 19.5   704 – Lincoln Laboratory ETS, New Mexico MPS 405950
2011 11 23.37153 04 47 01.55 +15 31 54.1 19.0 R H15 – ISON-NM Observatory, Mayhill MPS 401099
2011 11 23.38662 04 47 00.60 +15 31 54.7 19.1 R H15 – ISON-NM Observatory, Mayhill MPS 401099
2011 11 23.40135 04 46 59.69 +15 31 55.8 19.1 R H15 – ISON-NM Observatory, Mayhill MPS 401099
2011 11 24.52504 04 45 51.255 +15 33 06.24 19.9 g F51 – Pan-STARRS 1, Haleakala MPS 401099
2011 11 24.53746 04 45 50.453 +15 33 06.97 19.9 g F51 – Pan-STARRS 1, Haleakala MPS 401099
2011 11 24.55077 04 45 49.594 +15 33 07.68 19.4 r F51 – Pan-STARRS 1, Haleakala MPS 401099
2011 11 24.56255 04 45 48.837 +15 33 08.40 19.3 r F51 – Pan-STARRS 1, Haleakala MPS 401099
2011 11 25.66882 04 44 40.64 +15 34 19.5 19.0 R D29 – Purple Mountain Observatory, XuYi Station MPS 402384
2011 11 25.67982 04 44 39.88 +15 34 19.9 19.1 R D29 – Purple Mountain Observatory, XuYi Station MPS 402384
2011 11 25.68482 04 44 39.56 +15 34 20.1 19.4 R D29 – Purple Mountain Observatory, XuYi Station MPS 402384
2011 11 25.69583 04 44 38.82 +15 34 20.9 18.9 R D29 – Purple Mountain Observatory, XuYi Station MPS 402384
2011 11 25.70083 04 44 38.52 +15 34 21.3 19.0 R D29 – Purple Mountain Observatory, XuYi Station MPS 402384
2011 11 25.71184 04 44 37.77 +15 34 22.2 19.1 R D29 – Purple Mountain Observatory, XuYi Station MPS 402384
2011 11 28.27213 04 41 55.12 +15 37 31.4 19.2   704 – Lincoln Laboratory ETS, New Mexico MPS 402384
2011 11 28.28526 04 41 54.33 +15 37 33.5 19.4   704 – Lincoln Laboratory ETS, New Mexico MPS 402384
2011 11 28.29819 04 41 53.34 +15 37 33.6 19.6   704 – Lincoln Laboratory ETS, New Mexico MPS 402384
2011 11 28.31112 04 41 52.52 +15 37 35.0 19.7   704 – Lincoln Laboratory ETS, New Mexico MPS 402384
2011 11 28.32418 04 41 51.55 +15 37 34.0 19.5   704 – Lincoln Laboratory ETS, New Mexico MPS 402384
2011 12 01.48413 04 38 25.129 +15 42 10.07 19.9 g F51 – Pan-STARRS 1, Haleakala MPS 402384
2011 12 01.51104 04 38 23.272 +15 42 12.45 19.3 r F51 – Pan-STARRS 1, Haleakala MPS 402384
2011 12 01.52395 04 38 22.381 +15 42 13.59 19.3 r F51 – Pan-STARRS 1, Haleakala MPS 402384
2011 12 03.68131 04 36 00.21 +15 45 45.8 19.2 R D29 – Purple Mountain Observatory, XuYi Station MPS 402384
2011 12 03.69732 04 35 59.05 +15 45 47.2 19.0 R D29 – Purple Mountain Observatory, XuYi Station MPS 402384
2011 12 03.71334 04 35 58.04 +15 45 48.4 18.8 R D29 – Purple Mountain Observatory, XuYi Station MPS 402384
2011 12 18.32376 04 20 49.80 +16 20 01.6 19.3   704 – Lincoln Laboratory ETS, New Mexico MPS 404230
2011 12 18.35061 04 20 48.32 +16 20 06.3 19.8   704 – Lincoln Laboratory ETS, New Mexico MPS 404230
2011 12 18.36359 04 20 47.53 +16 20 09.2 19.0   704 – Lincoln Laboratory ETS, New Mexico MPS 404230
2011 12 18.37666 04 20 46.87 +16 20 10.7 19.1   704 – Lincoln Laboratory ETS, New Mexico MPS 404230
2011 12 28.17608 04 13 16.42 +16 53 33.1 19.1 V G96 – Mt. Lemmon Survey MPS 404667
2011 12 28.18285 04 13 16.17 +16 53 34.8 19.1 V G96 – Mt. Lemmon Survey MPS 404667
2011 12 28.18976 04 13 15.88 +16 53 36.4 19.1 V G96 – Mt. Lemmon Survey MPS 404667
2011 12 28.19671 04 13 15.63 +16 53 37.0 18.6 V G96 – Mt. Lemmon Survey MPS 404667
2012 01 03.08487 04 10 20.31 +17 17 41.5 19.7 V 691 – Steward Observatory, Kitt Peak-Spacewatch MPS 405950
2012 01 03.09830 04 10 19.95 +17 17 45.0 19.8 V 691 – Steward Observatory, Kitt Peak-Spacewatch MPS 405950
2012 01 03.11174 04 10 19.60 +17 17 48.5 19.7 V 691 – Steward Observatory, Kitt Peak-Spacewatch MPS 405950
2012 01 26.13167 04 11 46.60 +19 15 06.8 19.6 V G96 – Mt. Lemmon Survey MPS 410089
2012 01 26.13686 04 11 46.75 +19 15 08.2 19.8 V G96 – Mt. Lemmon Survey MPS 410089
2012 01 26.14212 04 11 46.89 +19 15 10.5 19.9 V G96 – Mt. Lemmon Survey MPS 410089
2012 01 26.14738 04 11 47.04 +19 15 11.6 19.9 V G96 – Mt. Lemmon Survey MPS 410089
2012 02 25.21625 04 40 52.50 +22 09 03.4 20.3 V G96 – Mt. Lemmon Survey MPS 416079
2012 02 25.22252 04 40 53.00 +22 09 05.9 20.6 V G96 – Mt. Lemmon Survey MPS 416079
2012 02 25.22876 04 40 53.50 +22 09 07.3 20.4 V G96 – Mt. Lemmon Survey MPS 416079
2012 02 25.23509 04 40 54.04 +22 09 09.6 20.4 V G96 – Mt. Lemmon Survey MPS 416079
2013 04 15.50777 15 55 11.926 -12 24 03.64 20.9 w F51 – Pan-STARRS 1, Haleakala MPS 464949
2013 04 15.52201 15 55 11.391 -12 24 01.54 21.0 w F51 – Pan-STARRS 1, Haleakala MPS 464949
2013 04 15.53630 15 55 10.841 -12 23 59.43 21.0 w F51 – Pan-STARRS 1, Haleakala MPS 464949
2013 04 15.55054 15 55 10.304 -12 23 56.93 20.8 w F51 – Pan-STARRS 1, Haleakala MPS 464949
2013 05 02.39862 15 41 42.03 -11 38 08.8 20.7 V G96 – Mt. Lemmon Survey MPS 466781
2013 05 02.40391 15 41 41.78 -11 38 07.9 21.2 V G96 – Mt. Lemmon Survey MPS 466781
2013 05 02.40917 15 41 41.42 -11 38 07.3 20.5 V G96 – Mt. Lemmon Survey MPS 466781
2013 05 02.41444 15 41 41.13 -11 38 06.5 20.9 V G96 – Mt. Lemmon Survey MPS 466781
